Louisville Bowman, KY

5:15 AM EDT on June 26, 2017 (GMT -0400)
Bowman

Weather History for KLOU - September, 2012

Change the Weather History Date:

Thursday, September 20, 2012

  Actual Average Record
Temperature  
Mean Temperature 64 °F 68 °F  
Max Temperature 79 °F 78 °F 94 °F (1948)
Min Temperature 49 °F 57 °F 43 °F (1956)
Degree Days  
Heating Degree Days 1 2  
Month to date heating degree days 12 8  
Since 1 July heating degree days 12 8  
Cooling Degree Days 0 4  
Month to date cooling degree days 144 143  
Year to date cooling degree days 1813 1382  
Growing Degree Days 13 (Base 50)    
Moisture  
Dew Point 48 °F    
Average Humidity 61    
Maximum Humidity 86    
Minimum Humidity 36    
Precipitation  
Precipitation 0.00 in 0.10 in 3.19 in (1954)
Month to date precipitation 3.53 1.98  
Year to date precipitation 33.45 33.52  
Sea Level Pressure  
Sea Level Pressure 30.02 in    
Wind  
Wind Speed 5 mph (SSW)    
Max Wind Speed 14 mph    
Max Gust Speed 22 mph    
Visibility 10 miles    
Events      
T = Trace of Precipitation, MM = Missing Value Source: NWS Daily Summary

Daily Weather History Graph

Daily Weather History Graph

Search for Another Location

Airport or City:

Trip Planner

Search our weather history database for the weather conditions in past years. The results will help you decide how hot, cold, wet, or windy it might be!

Date:

Astronomy

Sep. 20, 2012 Rise Set
Actual Time 7:29 AM EDT 7:42 PM EDT
Civil Twilight 7:02 AM EDT 8:08 PM EDT
Nautical Twilight 6:31 AM EDT 8:39 PM EDT
Astronomical Twilight 6:00 AM EDT 9:10 PM EDT
Moon 12:41 PM EDT (9/20) 10:48 PM EDT (9/20)
Length of Visible Light 13h 05m
Length of Day
12h 12m
Waxing Crescent, 26% of the Moon is Illuminated
Sep 20
Waxing Crescent
Sep 22
First Quarter
Sep 29
Full
Oct 8
Last Quarter
Oct 15
New

Hourly Weather History & Observations

Time (EDT) Temp. Dew Point Humidity Pressure Visibility Wind Dir Wind Speed Gust Speed Precip Events Conditions
12:53 AM 52.0 °F 44.1 °F 74% 30.10 in 10.0 mi Calm Calm - N/A   Clear
1:53 AM 52.0 °F 44.1 °F 74% 30.09 in 10.0 mi Calm Calm - N/A   Clear
2:53 AM 51.1 °F 44.1 °F 77% 30.08 in 10.0 mi Calm Calm - N/A   Clear
3:53 AM 50.0 °F 44.1 °F 80% 30.07 in 10.0 mi Calm Calm - N/A   Clear
4:53 AM 48.9 °F 44.1 °F 83% 30.08 in 10.0 mi Calm Calm - N/A   Clear
5:53 AM 50.0 °F 44.1 °F 80% 30.06 in 10.0 mi Calm Calm - N/A   Clear
6:53 AM 51.1 °F 43.0 °F 74% 30.06 in 10.0 mi South 3.5 mph - N/A   Clear
7:53 AM 51.1 °F 44.1 °F 77% 30.07 in 10.0 mi South 3.5 mph - N/A   Clear
8:53 AM 54.0 °F 45.0 °F 72% 30.07 in 10.0 mi South 5.8 mph - N/A   Clear
9:53 AM 60.1 °F 46.0 °F 60% 30.06 in 10.0 mi SSW 6.9 mph - N/A   Clear
10:53 AM 64.9 °F 48.0 °F 54% 30.04 in 10.0 mi SSW 4.6 mph - N/A   Clear
11:53 AM 69.8 °F 48.2 °F 46% 30.04 in 10.0 mi SW 12.7 mph 18.4 mph N/A   Clear
12:53 PM 73.0 °F 48.0 °F 41% 30.01 in 10.0 mi SSW 10.4 mph - N/A   Clear
1:53 PM 75.0 °F 48.0 °F 38% 30.00 in 10.0 mi South 8.1 mph - N/A   Clear
2:53 PM 77.0 °F 48.9 °F 37% 29.98 in 10.0 mi SSW 5.8 mph - N/A   Clear
3:53 PM 77.0 °F 48.9 °F 37% 29.96 in 10.0 mi SW 6.9 mph - N/A   Clear
4:53 PM 78.1 °F 50.0 °F 37% 29.94 in 10.0 mi South 8.1 mph 16.1 mph N/A   Clear
5:53 PM 78.1 °F 50.0 °F 37% 29.94 in 10.0 mi SSW 10.4 mph 18.4 mph N/A   Clear
6:53 PM 75.9 °F 50.0 °F 40% 29.95 in 10.0 mi South 9.2 mph - N/A   Mostly Cloudy
7:53 PM 73.9 °F 51.1 °F 45% 29.96 in 10.0 mi SSW 6.9 mph - N/A   Mostly Cloudy
8:53 PM 73.0 °F 51.1 °F 46% 29.96 in 10.0 mi SSW 4.6 mph - N/A   Overcast
9:53 PM 71.1 °F 53.1 °F 53% 29.96 in 10.0 mi South 5.8 mph - N/A   Overcast
10:53 PM 70.0 °F 53.1 °F 55% 29.97 in 10.0 mi Calm Calm - N/A   Overcast
11:53 PM 68.0 °F 53.1 °F 59% 29.98 in 10.0 mi SW 3.5 mph - N/A   Mostly Cloudy